When you browse on this site, cookies collect data to enhance your experience and personalize the content and advertising you see.
Visit our Privacy Policy to learn more. By continuing to use the site, you agree to this use of cookies and data.
  • In Austria
  • List of Countries
  • For 7 days
  • Water Temperature
  • Weather Map
  • News
  • Weather Widgets
  • user-avatar
    Login

    Hourly Weather Rzeszow

    Today, 9 April, Thursday

    Time Temperature Precipitation Wind Pressure Humidity
    00:00 +11°C° 0 mm 1 mps 750 mmHg 68%
    01:00 +10°C° 0 mm 1 mps 749 mmHg 69%
    02:00 +10°C° 0 mm 1 mps 749 mmHg 70%
    03:00 +10°C° 0 mm 1 mps 749 mmHg 70%
    04:00 +10°C° 0 mm 1 mps 748 mmHg 70%
    05:00 +11°C° 0 mm 1 mps 748 mmHg 67%
    06:00 +12°C° 0 mm 2 mps 748 mmHg 64%
    07:00 +13°C° 0 mm 2 mps 748 mmHg 61%
    08:00 +15°C° 0 mm 2 mps 748 mmHg 55%
    09:00 +16°C° 0 mm 3 mps 748 mmHg 48%
    10:00 +18°C° 0 mm 3 mps 747 mmHg 42%
    11:00 +19°C° 0 mm 3 mps 747 mmHg 39%
    12:00 +20°C° 0 mm 4 mps 747 mmHg 36%
    13:00 +21°C° 0 mm 4 mps 746 mmHg 34%
    14:00 +21°C° 0 mm 4 mps 746 mmHg 35%
    15:00 +20°C° 0 mm 4 mps 746 mmHg 36%
    16:00 +20°C° 0 mm 4 mps 745 mmHg 38%
    17:00 +18°C° 0 mm 4 mps 745 mmHg 41%
    18:00 +16°C° 0 mm 3 mps 745 mmHg 45%
    19:00 +14°C° 0 mm 2 mps 745 mmHg 49%
    20:00 +13°C° 0 mm 2 mps 745 mmHg 57%
    21:00 +13°C° 0 mm 2 mps 746 mmHg 65%
    22:00 +12°C° 0 mm 2 mps 746 mmHg 73%
    23:00 +11°C° 0 mm 3 mps 747 mmHg 73%

    Tomorrow, 10 April, Friday

    Time Temperature Precipitation Wind Pressure Humidity
    00:00 +10°C° 0 mm 3 mps 747 mmHg 73%
    01:00 +10°C° 0 mm 3 mps 747 mmHg 72%
    02:00 +9°C° 0 mm 3 mps 747 mmHg 77%
    03:00 +7°C° 0 mm 3 mps 748 mmHg 83%
    04:00 +6°C° 0 mm 2 mps 748 mmHg 88%
    05:00 +7°C° 0 mm 3 mps 748 mmHg 82%
    06:00 +7°C° 0 mm 3 mps 749 mmHg 77%
    07:00 +8°C° 0 mm 3 mps 749 mmHg 71%
    08:00 +8°C° 0 mm 3 mps 749 mmHg 66%
    09:00 +8°C° 0 mm 4 mps 749 mmHg 61%
    10:00 +10°C° 0 mm 4 mps 750 mmHg 56%
    11:00 +11°C° 0 mm 4 mps 750 mmHg 50%
    12:00 +12°C° 0 mm 4 mps 750 mmHg 45%
    13:00 +13°C° 0 mm 3 mps 749 mmHg 39%
    14:00 +13°C° 0 mm 3 mps 749 mmHg 40%
    15:00 +13°C° 0 mm 3 mps 749 mmHg 40%
    16:00 +13°C° 0 mm 3 mps 748 mmHg 40%
    17:00 +12°C° 0 mm 2 mps 748 mmHg 45%
    18:00 +10°C° 0 mm 1 mps 748 mmHg 50%
    19:00 +9°C° 0 mm 1 mps 748 mmHg 54%
    20:00 +7°C° 0 mm 0 mps 749 mmHg 56%
    21:00 +7°C° 0 mm 0 mps 749 mmHg 58%
    22:00 +6°C° 0 mm 0 mps 749 mmHg 59%
    23:00 +6°C° 0 mm 0 mps 749 mmHg 60%

    Day after tomorrow, 11 April, Saturday

    Time Temperature Precipitation Wind Pressure Humidity
    00:00 +6°C° 0 mm 0 mps 749 mmHg 61%
    01:00 +7°C° 0 mm 1 mps 749 mmHg 62%
    02:00 +6°C° 0 mm 1 mps 749 mmHg 64%
    03:00 +6°C° 0 mm 1 mps 749 mmHg 66%
    04:00 +6°C° 0 mm 1 mps 749 mmHg 68%
    05:00 +7°C° 0 mm 1 mps 749 mmHg 66%
    06:00 +7°C° 0 mm 1 mps 749 mmHg 65%
    07:00 +8°C° 0 mm 1 mps 749 mmHg 63%
    08:00 +9°C° 0 mm 2 mps 750 mmHg 57%
    09:00 +10°C° 0 mm 2 mps 750 mmHg 51%
    10:00 +13°C° 0 mm 2 mps 750 mmHg 46%
    11:00 +13°C° 0 mm 2 mps 750 mmHg 44%
    12:00 +13°C° 0 mm 3 mps 750 mmHg 43%
    13:00 +13°C° 0 mm 3 mps 750 mmHg 42%
    14:00 +13°C° 0 mm 3 mps 750 mmHg 43%
    15:00 +14°C° 0 mm 2 mps 750 mmHg 45%
    16:00 +13°C° 0 mm 2 mps 750 mmHg 46%
    17:00 +12°C° 0 mm 2 mps 750 mmHg 51%
    18:00 +10°C° 0 mm 2 mps 750 mmHg 55%
    19:00 +8°C° 0 mm 2 mps 750 mmHg 59%
    20:00 +7°C° 0 mm 2 mps 751 mmHg 60%
    21:00 +8°C° 0 mm 1 mps 751 mmHg 61%
    22:00 +7°C° 0 mm 1 mps 751 mmHg 62%
    23:00 +6°C° 0 mm 2 mps 751 mmHg 63%

    12 April, Sunday

    Time Temperature Precipitation Wind Pressure Humidity
    00:00 +5°C° 0 mm 2 mps 751 mmHg 65%
    01:00 +5°C° 0 mm 2 mps 751 mmHg 66%
    02:00 +4°C° 0 mm 2 mps 751 mmHg 66%
    03:00 +4°C° 0 mm 2 mps 750 mmHg 66%
    04:00 +3°C° 0 mm 2 mps 750 mmHg 67%
    05:00 +5°C° 0 mm 2 mps 750 mmHg 64%
    06:00 +6°C° 0 mm 2 mps 750 mmHg 62%
    07:00 +7°C° 0 mm 2 mps 749 mmHg 60%
    08:00 +9°C° 0 mm 2 mps 749 mmHg 55%
    09:00 +12°C° 0 mm 2 mps 748 mmHg 50%
    10:00 +14°C° 0 mm 2 mps 748 mmHg 45%
    11:00 +15°C° 0 mm 2 mps 748 mmHg 43%
    12:00 +16°C° 0 mm 3 mps 747 mmHg 42%
    13:00 +17°C° 0 mm 3 mps 747 mmHg 40%
    14:00 +17°C° 0 mm 3 mps 746 mmHg 41%
    15:00 +17°C° 0 mm 3 mps 746 mmHg 43%
    16:00 +18°C° 0 mm 3 mps 745 mmHg 44%
    17:00 +15°C° 0 mm 4 mps 745 mmHg 51%
    18:00 +13°C° 0 mm 4 mps 745 mmHg 57%
    19:00 +11°C° 0 mm 4 mps 744 mmHg 64%
    20:00 +11°C° 0 mm 4 mps 744 mmHg 63%
    21:00 +10°C° 0 mm 5 mps 744 mmHg 63%
    22:00 +9°C° 0 mm 5 mps 744 mmHg 62%
    23:00 +9°C° 0 mm 5 mps 744 mmHg 63%

    13 April, Monday

    Time Temperature Precipitation Wind Pressure Humidity
    00:00 +9°C° 0 mm 5 mps 744 mmHg 63%
    01:00 +9°C° 0 mm 5 mps 743 mmHg 64%
    02:00 +8°C° 0 mm 5 mps 743 mmHg 65%
    03:00 +8°C° 0 mm 5 mps 743 mmHg 66%
    04:00 +8°C° 0 mm 4 mps 742 mmHg 67%
    05:00 +8°C° 0 mm 5 mps 742 mmHg 67%
    06:00 +9°C° 0 mm 5 mps 742 mmHg 68%
    07:00 +10°C° 0 mm 6 mps 741 mmHg 68%
    08:00 +11°C° 0 mm 6 mps 741 mmHg 65%
    09:00 +13°C° 0 mm 6 mps 741 mmHg 63%
    10:00 +15°C° 0 mm 6 mps 740 mmHg 60%
    11:00 +16°C° 0 mm 7 mps 740 mmHg 57%
    12:00 +17°C° 0 mm 7 mps 739 mmHg 54%
    13:00 +18°C° 0 mm 7 mps 739 mmHg 51%
    14:00 +17°C° 0.1 mm 7 mps 738 mmHg 53%
    15:00 +17°C° 0.1 mm 6 mps 738 mmHg 56%
    16:00 +16°C° 0.1 mm 5 mps 737 mmHg 58%
    17:00 +15°C° 0.6 mm 5 mps 737 mmHg 64%
    18:00 +14°C° 0.6 mm 5 mps 736 mmHg 71%
    19:00 +13°C° 0.6 mm 4 mps 736 mmHg 77%
    20:00 +12°C° 1.3 mm 5 mps 736 mmHg 81%
    21:00 +10°C° 1.3 mm 5 mps 737 mmHg 86%
    22:00 +10°C° 1.3 mm 6 mps 737 mmHg 90%
    23:00 +6°C° 0.3 mm 7 mps 738 mmHg 87%

    14 April, Tuesday

    Time Temperature Precipitation Wind Pressure Humidity
    00:00 +4°C° 0.3 mm 8 mps 740 mmHg 83%
    01:00 0°C° 0.3 mm 8 mps 741 mmHg 80%
    02:00 -1°C° 0 mm 8 mps 742 mmHg 76%
    03:00 -2°C° 0 mm 8 mps 744 mmHg 72%
    04:00 -3°C° 0 mm 7 mps 745 mmHg 68%
    05:00 -3°C° 0 mm 7 mps 746 mmHg 63%
    06:00 -3°C° 0 mm 7 mps 747 mmHg 58%
    07:00 -3°C° 0 mm 7 mps 748 mmHg 52%
    08:00 -2°C° 0 mm 7 mps 748 mmHg 48%
    09:00 0°C° 0 mm 7 mps 748 mmHg 44%
    10:00 +2°C° 0 mm 7 mps 748 mmHg 40%
    11:00 +2°C° 0 mm 7 mps 749 mmHg 39%
    12:00 +3°C° 0 mm 7 mps 749 mmHg 39%
    13:00 +4°C° 0 mm 6 mps 749 mmHg 38%
    14:00 +4°C° 0 mm 6 mps 749 mmHg 39%
    15:00 +5°C° 0 mm 5 mps 749 mmHg 40%
    16:00 +5°C° 0 mm 5 mps 749 mmHg 41%
    17:00 +4°C° 0 mm 4 mps 749 mmHg 45%
    18:00 +3°C° 0 mm 3 mps 749 mmHg 50%
    19:00 +3°C° 0 mm 2 mps 750 mmHg 54%
    20:00 +2°C° 0 mm 2 mps 750 mmHg 57%
    21:00 +2°C° 0 mm 2 mps 750 mmHg 60%
    22:00 +1°C° 0 mm 2 mps 750 mmHg 63%
    23:00 +1°C° 0 mm 2 mps 750 mmHg 65%
    Show more